[[{"header":{"parameterUnit":"m.s-1","parameterCategory":1,"la1":30.2991,"la2":30.254,"lo1":-89.0895,"lo2":-89.0444,"dy":0.0017,"dx":0.0017,"nx":28,"ny":28,"refTime":"2024-08-30T09:00:00:Z","depth":0,"parameterNumber":2,"parameterNumberName":"U-component_of_WINDS"},"data":[0,0,0,0,0,0,0,0,0,0,0,0,0,0,0,0,0,0,0,0,0,0,0,0,0,0,0,0,0,0,0,0,0,0,0,0,0,0,0,0,0,0,0,0,0,0,0,0,0,0,0,0,0,0,0,0,0,0,-1.4336,-1.4335,0,-1.4288,-1.4288,-1.4287,-1.4231,-1.423,-1.4229,-1.4229,-1.4184,-1.4183,-1.4183,0,0,0,0,0,0,0,0,0,0,0,0,0,-1.4381,-1.438,-1.4336,-1.4335,-1.4335,-1.4288,-1.4287,-1.4287,-1.4231,-1.423,-1.4229,-1.4228,-1.4184,-1.4183,-1.4183,0,0,0,0,0,0,0,0,0,0,0,0,0,-1.435,-1.438,-1.4336,-1.4301,-1.4298,-1.4288,-1.4287,-1.4287,-1.4232,-1.423,-1.4229,-1.4228,-1.4184,-1.4183,-1.4183,-1.4205,0,0,-1.4181,-1.4181,0,0,0,0,0,0,0,0,-1.4352,-1.4348,-1.4307,-1.4304,-1.4299,-1.4264,-1.4287,-1.4259,-1.4232,-1.4257,-1.4229,-1.4227,-1.4212,-1.4209,-1.4203,-1.4203,-1.4201,-1.4181,-1.4181,-1.418,-1.418,0,0,0,0,0,0,0,-1.4354,-1.435,-1.4317,-1.4306,-1.4302,-1.4289,-1.4283,-1.4281,-1.4242,-1.4255,-1.425,-1.4245,-1.421,-1.4204,-1.4201,-1.42,-1.4181,-1.418,-1.418,-1.418,-1.4215,-1.4216,0,0,0,0,0,0,-1.4361,-1.4352,-1.4318,-1.4316,-1.4323,-1.4289,-1.4282,-1.4277,-1.4242,-1.4235,-1.4246,-1.4243,-1.4205,-1.4202,-1.42,-1.4222,-1.418,-1.418,-1.4179,-1.4213,-1.4215,-1.4216,0,0,0,0,0,0,-1.4362,-1.4358,-1.432,-1.4333,-1.4327,-1.4289,-1.4284,-1.4277,-1.4271,-1.4236,-1.4229,-1.4247,-1.4204,-1.42,-1.4203,-1.422,-1.418,-1.4179,-1.4212,-1.4214,-1.4216,-1.4269,0,0,0,0,0,0,-1.4364,-1.4359,-1.4367,-1.4333,-1.4326,-1.4325,-1.4285,-1.4277,-1.4269,-1.4264,-1.4235,-1.4229,-1.4203,-1.4205,-1.4203,-1.4219,-1.4179,-1.421,-1.4213,-1.4215,-1.4266,-1.4273,-1.4279,0,0,0,0,0,-1.4365,-1.4385,-1.4368,-1.4364,-1.4335,-1.4326,-1.4322,-1.429,-1.4271,-1.4278,-1.4256,-1.423,-1.4218,-1.4205,-1.4203,-1.4219,-1.4209,-1.4212,-1.4215,-1.4263,-1.4271,-1.4278,0,0,0,0,0,0,-1.4424,-1.438,-1.436,-1.437,-1.4352,-1.4316,-1.4325,-1.4301,-1.4289,-1.4285,-1.4247,-1.4241,-1.4249,-1.4234,-1.422,-1.4238,-1.421,-1.4212,-1.4247,-1.4255,-1.4261,-1.4265,-1.4178,0,0,0,0,0,-1.4437,-1.4433,-1.4395,-1.4407,-1.4398,-1.4363,-1.4358,-1.4335,-1.4316,-1.4308,-1.4286,-1.4269,-1.4261,-1.4257,-1.4248,-1.4263,-1.4256,-1.4272,-1.4279,-1.4284,-1.4287,-1.4293,-1.43,-1.4226,-1.4226,-1.4226,0,0,-1.4467,-1.4442,-1.4442,-1.4418,-1.4401,-1.4397,-1.4358,-1.4356,-1.4353,-1.4308,-1.4309,-1.4292,-1.427,-1.4279,-1.4282,-1.4267,-1.4306,-1.4288,-1.4292,-1.4292,-1.4297,-1.4304,-1.431,-1.4228,-1.4227,-1.4227,0,0,-1.4517,-1.4498,-1.4505,-1.4488,-1.4463,-1.4439,-1.4441,-1.4408,-1.4395,-1.4395,-1.4361,-1.4357,-1.4345,-1.433,-1.4321,-1.4364,-1.4339,-1.4362,-1.4396,-1.4402,-1.4408,-1.4413,-1.4428,-1.4434,-1.4365,-1.4365,-1.4365,0,-1.4557,-1.4549,-1.4512,-1.4512,-1.4502,-1.4459,-1.4466,-1.4452,-1.4426,-1.4421,-1.4404,-1.4386,-1.4369,-1.4373,-1.4383,-1.4377,-1.4378,-1.4366,-1.441,-1.4415,-1.4419,-1.4433,-1.4439,-1.4368,-1.4367,-1.4367,-1.4367,0,-1.4599,-1.4593,-1.4602,-1.4576,-1.4567,-1.4571,-1.4535,-1.453,-1.4507,-1.4485,-1.4485,-1.4462,-1.4447,-1.4446,-1.4425,-1.4447,-1.4439,-1.4417,-1.4388,-1.4429,-1.4442,-1.4447,-1.4372,-1.4371,-1.437,-1.4369,0,0,-1.4688,-1.4638,-1.4642,-1.4629,-1.4596,-1.4592,-1.4593,-1.4577,-1.4574,-1.4556,-1.4556,-1.4546,-1.4524,-1.4514,-1.449,-1.4495,-1.453,-1.4472,-1.4471,-1.4484,-1.4553,-1.4571,-1.4577,-1.4513,-1.4514,-1.4514,-1.4555,0,-1.4733,-1.4731,-1.4697,-1.4705,-1.4699,-1.4657,-1.4658,-1.4638,-1.4617,-1.461,-1.4587,-1.458,-1.4552,-1.4545,-1.4548,-1.4525,-1.4543,-1.4521,-1.4514,-1.4514,-1.4521,-1.4584,-1.4603,-1.4642,-1.4559,-1.456,-1.4561,0,-1.4786,-1.4769,-1.4777,-1.4742,-1.4738,-1.4739,-1.4721,-1.4714,-1.4691,-1.4675,-1.4662,-1.4634,-1.4633,-1.4605,-1.4603,-1.4589,-1.4583,-1.4571,-1.4572,-1.4571,-1.4541,-1.4585,-1.4654,-1.4661,-1.4568,-1.4568,-1.4567,0,-1.4851,-1.483,-1.4831,-1.4821,-1.478,-1.4782,-1.4765,-1.474,-1.4732,-1.4716,-1.471,-1.4695,-1.4687,-1.4676,-1.4644,-1.4627,-1.4646,-1.4615,-1.4634,-1.4634,-1.4641,-1.4641,-1.4711,-1.4636,-1.4636,-1.4636,-1.4636,0,-1.4906,-1.4912,-1.4859,-1.486,-1.4865,-1.4825,-1.4832,-1.4811,-1.4789,-1.4785,-1.4748,-1.4746,-1.4704,-1.4697,-1.4672,-1.4674,-1.4671,-1.4659,-1.4652,-1.4663,-1.4664,-1.466,-1.4656,-1.4637,-1.4637,-1.4637,-1.4636,0,-1.498,-1.4944,-1.4943,-1.4903,-1.4893,-1.4899,-1.4865,-1.4865,-1.484,-1.4836,-1.4833,-1.4795,-1.4784,-1.4751,-1.4733,-1.4716,-1.4726,-1.4713,-1.4734,-1.473,-1.475,-1.4749,-1.482,-1.4827,-1.4747,-1.4748,-1.4749,0,-1.5018,-1.5021,-1.4981,-1.4975,-1.4959,-1.495,-1.4941,-1.4901,-1.4893,-1.4865,-1.4868,-1.4854,-1.4841,-1.4826,-1.4798,-1.4783,-1.477,-1.4796,-1.4768,-1.4778,-1.4771,-1.4772,-1.4772,-1.4803,-1.4804,-1.4805,-1.4805,0,-1.5089,-1.5071,-1.5058,-1.5038,-1.5027,-1.5011,-1.4992,-1.4989,-1.4945,-1.4938,-1.4925,-1.4915,-1.4895,-1.4882,-1.4862,-1.4846,-1.4819,-1.4814,-1.4817,-1.4829,-1.4841,-1.4835,-1.4751,-1.4813,-1.4812,-1.4812,-1.4811,-1.4811,-1.5147,-1.5147,-1.5118,-1.5105,-1.5085,-1.5068,-1.5065,-1.5038,-1.5027,-1.5007,-1.4984,-1.4974,-1.4949,-1.4919,-1.4905,-1.4897,-1.4882,-1.4888,-1.4889,-1.4891,-1.4896,-1.484,-1.4893,-1.4893,-1.4893,-1.4893,-1.4892,0,-1.5217,-1.5195,-1.5183,-1.5156,-1.5145,-1.5117,-1.5094,-1.5088,-1.5079,-1.5057,-1.5044,-1.5029,-1.5016,-1.4985,-1.4968,-1.4968,-1.4955,-1.4965,-1.4966,-1.4962,-1.491,-1.4909,-1.4976,-1.4976,-1.4976,-1.4976,-1.4976,-1.4976,-1.5252,-1.5251,-1.5229,-1.5217,-1.5196,-1.5185,-1.5174,-1.5158,-1.5139,-1.5124,-1.5112,-1.5091,-1.5065,-1.5046,-1.5032,-1.5023,-1.5019,-1.5034,-1.5021,-1.4974,-1.4966,-1.4958,-1.4957,-1.5033,-1.5033,-1.5074,-1.5074,-1.5075]},{"header":{"parameterUnit":"m.s-1","parameterCategory":1,"la1":30.2991,"la2":30.254,"lo1":-89.0895,"lo2":-89.0444,"dy":0.0017,"dx":0.0017,"nx":28,"ny":28,"refTime":"2024-08-30T09:00:00:Z","depth":0,"parameterNumber":3,"parameterNumberName":"V-component_of_WINDS"},"data":[0,0,0,0,0,0,0,0,0,0,0,0,0,0,0,0,0,0,0,0,0,0,0,0,0,0,0,0,0,0,0,0,0,0,0,0,0,0,0,0,0,0,0,0,0,0,0,0,0,0,0,0,0,0,0,0,0,0,3.8462,3.8462,0,3.843,3.843,3.843,3.8345,3.8344,3.8342,3.834,3.8309,3.831,3.8311,0,0,0,0,0,0,0,0,0,0,0,0,0,3.8454,3.8455,3.8462,3.8462,3.8462,3.843,3.843,3.843,3.8346,3.8344,3.8341,3.8339,3.8309,3.831,3.8311,0,0,0,0,0,0,0,0,0,0,0,0,0,3.8444,3.8455,3.8463,3.8416,3.8412,3.843,3.843,3.8429,3.8346,3.8344,3.8341,3.8338,3.8308,3.831,3.8311,3.8373,0,0,3.8315,3.8315,0,0,0,0,0,0,0,0,3.8444,3.8444,3.8423,3.8419,3.8414,3.8389,3.8415,3.8411,3.8347,3.8371,3.834,3.8337,3.8338,3.8337,3.8337,3.8371,3.837,3.8315,3.8316,3.8316,3.8317,0,0,0,0,0,0,0,3.8445,3.8445,3.845,3.8423,3.8418,3.8398,3.8393,3.8414,3.837,3.8369,3.8363,3.836,3.8335,3.8336,3.8335,3.837,3.8315,3.8316,3.8317,3.8317,3.8454,3.8457,0,0,0,0,0,0,3.8452,3.8446,3.8451,3.8449,3.8423,3.84,3.8395,3.84,3.837,3.8362,3.8362,3.8356,3.8335,3.8334,3.8334,3.8404,3.8316,3.8317,3.8318,3.8451,3.8455,3.8458,0,0,0,0,0,0,3.8452,3.8453,3.8452,3.8446,3.8444,3.8403,3.8409,3.8401,3.8401,3.8365,3.8357,3.8371,3.8333,3.8332,3.8364,3.8401,3.8318,3.8319,3.8448,3.8452,3.8456,3.8544,0,0,0,0,0,0,3.8452,3.8454,3.8476,3.8447,3.8445,3.8482,3.8412,3.8402,3.8403,3.8395,3.837,3.8364,3.833,3.8362,3.8365,3.8402,3.832,3.8444,3.845,3.8455,3.8538,3.8551,3.8563,0,0,0,0,0,3.8452,3.8502,3.8478,3.8479,3.8471,3.8484,3.8483,3.8443,3.8407,3.8429,3.8406,3.8365,3.8398,3.8366,3.8369,3.8406,3.8442,3.8448,3.8455,3.8532,3.8549,3.8562,0,0,0,0,0,0,3.8537,3.8498,3.847,3.8512,3.8502,3.847,3.8496,3.8461,3.8462,3.8454,3.8405,3.8401,3.8439,3.8426,3.8392,3.8465,3.8413,3.842,3.8471,3.8486,3.8499,3.85,3.8321,0,0,0,0,0,3.8561,3.8574,3.8539,3.8579,3.8576,3.8538,3.8542,3.8512,3.85,3.8495,3.8474,3.8465,3.8473,3.848,3.8485,3.8537,3.853,3.8564,3.8577,3.8587,3.8593,3.8619,3.8634,3.8479,3.8479,3.8479,0,0,3.861,3.859,3.8601,3.8596,3.8585,3.86,3.8534,3.8553,3.8564,3.8498,3.8526,3.8511,3.8498,3.854,3.8557,3.853,3.8635,3.8595,3.8604,3.8604,3.8627,3.8642,3.8655,3.8483,3.8483,3.8482,0,0,3.8705,3.8692,3.8724,3.8715,3.8699,3.8673,3.8682,3.8655,3.8642,3.867,3.8621,3.8635,3.865,3.8642,3.864,3.8736,3.8698,3.874,3.8803,3.883,3.8842,3.8852,3.8886,3.8898,3.8747,3.8747,3.8747,0,3.8768,3.8787,3.8745,3.8767,3.8766,3.8709,3.8741,3.8734,3.8722,3.8723,3.8693,3.8712,3.8698,3.8738,3.8761,3.8762,3.877,3.8741,3.8843,3.8854,3.8863,3.8894,3.8907,3.8752,3.8751,3.8751,3.875,0,3.8865,3.888,3.8908,3.8896,3.89,3.8927,3.8889,3.8898,3.8869,3.8847,3.8877,3.886,3.8861,3.8869,3.8841,3.8904,3.8888,3.8852,3.8798,3.8883,3.8912,3.8923,3.8759,3.8757,3.8756,3.8754,0,0,3.901,3.8976,3.8987,3.8982,3.8961,3.8972,3.8998,3.8999,3.9007,3.9001,3.9021,3.9037,3.9003,3.9001,3.8973,3.8996,3.9073,3.8957,3.8956,3.8978,3.9141,3.9168,3.9182,3.9049,3.9051,3.9052,3.9142,0,3.9099,3.9139,3.9103,3.915,3.9164,3.9111,3.9133,3.9124,3.9105,3.9114,3.9094,3.9105,3.906,3.9059,3.908,3.9059,3.9105,3.9052,3.9066,3.9067,3.9069,3.9197,3.9224,3.931,3.9153,3.9155,3.9156,0,3.9207,3.9206,3.9255,3.9232,3.9237,3.9257,3.9256,3.9266,3.9255,3.9239,3.9239,3.9204,3.9228,3.9178,3.9211,3.9176,3.918,3.9171,3.9174,3.9172,3.9115,3.9197,3.9336,3.9348,3.9174,3.9172,3.9171,0,3.9306,3.9318,3.9348,3.9346,3.932,3.9336,3.9327,3.9313,3.9316,3.9316,3.9317,3.932,3.9322,3.9325,3.9292,3.9259,3.933,3.9277,3.9318,3.9318,3.9333,3.9332,3.9473,3.9339,3.9339,3.9339,3.9338,0,3.9408,3.944,3.9393,3.9411,3.9446,3.9405,3.9441,3.9426,3.9415,3.943,3.9386,3.9401,3.9358,3.937,3.9345,3.9376,3.9377,3.9366,3.9358,3.9368,3.937,3.9369,3.9361,3.9342,3.9341,3.9341,3.934,0,3.9524,3.9493,3.9523,3.9498,3.9492,3.9519,3.9497,3.9514,3.9493,3.9513,3.9516,3.9484,3.9495,3.9464,3.947,3.9454,3.9498,3.9482,3.9502,3.9496,3.9538,3.9534,3.9682,3.9699,3.9556,3.9558,3.9559,0,3.9589,3.9613,3.959,3.9597,3.959,3.9602,3.9605,3.9568,3.9573,3.9563,3.9582,3.959,3.9593,3.9615,3.9592,3.9597,3.958,3.9632,3.958,3.959,3.9579,3.9578,3.958,3.9641,3.9643,3.9645,3.9646,0,3.9709,3.9694,3.97,3.9702,3.9707,3.9707,3.9703,3.9712,3.9672,3.968,3.9691,3.9695,3.9702,3.971,3.9711,3.9702,3.9668,3.9663,3.9672,3.9682,3.9692,3.9686,3.9529,3.9659,3.9657,3.9656,3.9656,3.9655,3.9801,3.9819,3.9806,3.9815,3.9809,3.9807,3.9822,3.9804,3.9812,3.9815,3.9793,3.9809,3.9799,3.9796,3.9791,3.9803,3.978,3.9794,3.9797,3.9801,3.9807,3.9692,3.9804,3.9803,3.9803,3.9802,3.9802,0,3.9917,3.9907,3.9916,3.9913,3.992,3.9888,3.9883,3.9892,3.9906,3.99,3.9905,3.9918,3.9927,3.9906,3.9912,3.9926,3.991,3.9929,3.9926,3.9925,3.9829,3.9819,3.9941,3.9941,3.9941,3.9941,3.9941,3.9941,3.9978,4.0008,3.9991,4.0018,4.0007,4.0022,4.0022,4.0021,4.0016,4.0033,4.0039,4.0026,4.0014,4.0019,4.0026,4.0019,4.0023,4.0047,4.0035,3.9945,3.9931,3.9918,3.9909,4.0048,4.0048,4.013,4.0131,4.0131]}]]